2023/02/10 00:00:00,18.2, 0.7
2023/02/10 00:10:00,18.2, 0.9
2023/02/10 00:20:00,18.2, 1.0
2023/02/10 00:30:00,18.2, 0.5
2023/02/10 00:40:00,18.3, 0.7
2023/02/10 00:50:00,18.2, 0.7
2023/02/10 01:00:00,18.2, 0.7
2023/02/10 01:10:00,18.2, 0.7
2023/02/10 01:20:00,18.2, 1.2
2023/02/10 01:30:00,18.2, 1.1
2023/02/10 01:40:00,18.2, 0.9
2023/02/10 01:50:00,18.2, 1.4
2023/02/10 02:00:00,18.1, 1.1
2023/02/10 02:10:00,18.2, 1.3
2023/02/10 02:20:00,18.2, 1.0
2023/02/10 02:30:00,18.2, 1.5
2023/02/10 02:40:00,18.2, 0.9
2023/02/10 02:50:00,18.2, 1.5
2023/02/10 03:00:00,18.2, 1.1
2023/02/10 03:10:00,18.3, 1.1
2023/02/10 03:20:00,18.2, 1.2
2023/02/10 03:30:00,18.2, 0.9
2023/02/10 03:40:00,18.2, 1.0
2023/02/10 03:50:00,18.2, 1.4
2023/02/10 04:00:00,18.2, 1.5
2023/02/10 04:10:00,18.2, 1.1
2023/02/10 04:20:00,18.2, 1.1
2023/02/10 04:30:00,18.2, 1.0
2023/02/10 04:40:00,18.2, 0.8
2023/02/10 04:50:00,18.6,-0.3
2023/02/10 05:00:00,20.4,-0.2
2023/02/10 05:10:00,20.7, 0.0
2023/02/10 05:20:00,20.7, 0.4
2023/02/10 05:30:00,20.8, 0.2
2023/02/10 05:40:00,20.8, 0.1
2023/02/10 05:50:00,20.8, 0.2
2023/02/10 06:00:00,20.8, 0.5
2023/02/10 06:10:00,20.9, 0.8
2023/02/10 06:20:00,21.0, 0.4
2023/02/10 06:30:00,21.2, 1.0
2023/02/10 06:40:00,21.1, 0.6
2023/02/10 06:50:00,21.2, 1.0
2023/02/10 07:00:00,21.1, 0.7
2023/02/10 07:10:00,21.1, 0.9
2023/02/10 07:20:00,21.2, 0.7
2023/02/10 07:30:00,21.6, 0.8
2023/02/10 07:40:00,21.9, 0.4
2023/02/10 07:50:00,22.0, 0.5
2023/02/10 08:00:00,22.0, 0.6
2023/02/10 08:10:00,21.9, 1.2
2023/02/10 08:20:00,21.8, 0.8
2023/02/10 08:30:00,21.8, 0.8
2023/02/10 08:40:00,21.7, 1.0
2023/02/10 08:50:00,21.7, 1.1
2023/02/10 09:00:00,21.7, 1.8
2023/02/10 09:10:00,21.7, 2.3
2023/02/10 09:20:00,21.8, 1.7
2023/02/10 09:30:00,21.7, 1.7
2023/02/10 09:40:00,21.6, 1.9
2023/02/10 09:50:00,21.6, 1.8
2023/02/10 10:00:00,21.5, 1.2
2023/02/10 10:10:00,21.5, 1.0
2023/02/10 10:20:00,21.5, 1.0
2023/02/10 10:30:00,21.5, 1.2
2023/02/10 10:40:00,21.4, 1.1
2023/02/10 10:50:00,21.3, 1.8
2023/02/10 11:00:00,21.2, 1.9
2023/02/10 11:10:00,21.1, 2.1
2023/02/10 11:20:00,21.1, 2.2
2023/02/10 11:30:00,21.0, 2.3
2023/02/10 11:40:00,21.0, 2.1
2023/02/10 11:50:00,20.9, 2.1
2023/02/10 12:00:00,20.9, 2.2
2023/02/10 12:10:00,20.9, 2.2
2023/02/10 12:20:00,20.8, 2.5
2023/02/10 12:30:00,20.5, 2.2
2023/02/10 12:40:00,20.3, 2.4
2023/02/10 12:50:00,20.3, 2.4
2023/02/10 13:00:00,20.4, 2.4
2023/02/10 13:10:00,20.5, 2.8
2023/02/10 13:20:00,20.4, 2.5
2023/02/10 13:30:00,20.4, 2.4
2023/02/10 13:40:00,20.4, 2.8
2023/02/10 13:50:00,20.2, 2.9
2023/02/10 14:00:00,20.1, 2.9
2023/02/10 14:10:00,20.1, 3.0
2023/02/10 14:20:00,19.9, 2.9
2023/02/10 14:30:00,19.9, 3.3
2023/02/10 14:40:00,19.8, 2.9
2023/02/10 14:50:00,19.8, 3.2
2023/02/10 15:00:00,19.9, 3.2
2023/02/10 15:10:00,19.8, 3.5
2023/02/10 15:20:00,19.8, 3.3
2023/02/10 15:30:00,19.9, 3.5
2023/02/10 15:40:00,19.9, 3.3
2023/02/10 15:50:00,19.8, 2.7
2023/02/10 16:00:00,19.7, 2.4
2023/02/10 16:10:00,19.4, 2.4
2023/02/10 16:20:00,19.2, 2.4
2023/02/10 16:30:00,19.2, 2.3
2023/02/10 16:40:00,19.1, 2.1
2023/02/10 16:50:00,18.9, 2.0
2023/02/10 17:00:00,18.9, 1.9
2023/02/10 17:10:00,18.8, 2.2
2023/02/10 17:20:00,18.9, 1.6
2023/02/10 17:30:00,18.6, 1.4
2023/02/10 17:40:00,18.7, 1.8
2023/02/10 17:50:00,18.8, 1.9
2023/02/10 18:00:00,18.7, 1.5
2023/02/10 18:10:00,18.7, 1.7
2023/02/10 18:20:00,18.6, 1.8
2023/02/10 18:30:00,18.6, 1.8
2023/02/10 18:40:00,18.5, 1.9
2023/02/10 18:50:00,18.6, 1.9
2023/02/10 19:00:00,18.6, 1.6
2023/02/10 19:10:00,18.5, 1.8
2023/02/10 19:20:00,18.4, 1.8
2023/02/10 19:30:00,18.4, 1.6
2023/02/10 19:40:00,18.5, 2.0
2023/02/10 19:50:00,18.3, 2.2
2023/02/10 20:00:00,18.4, 2.2
2023/02/10 20:10:00,18.4, 2.1
2023/02/10 20:20:00,18.4, 2.0
2023/02/10 20:30:00,18.5, 2.0
2023/02/10 20:40:00,18.3, 2.0
2023/02/10 20:50:00,18.2, 2.2
2023/02/10 21:00:00,18.0, 2.4
2023/02/10 21:10:00,17.9, 2.2
2023/02/10 21:20:00,17.9, 2.0
2023/02/10 21:30:00,17.9, 2.0
2023/02/10 21:40:00,17.8, 2.0
2023/02/10 21:50:00,17.8, 1.9
2023/02/10 22:00:00,17.7, 2.0
2023/02/10 22:10:00,17.7, 2.0
2023/02/10 22:20:00,17.7, 2.3
2023/02/10 22:30:00,17.7, 2.1
2023/02/10 22:40:00,17.8, 2.2
2023/02/10 22:50:00,17.8, 2.1
2023/02/10 23:00:00,17.9, 1.7
2023/02/10 23:10:00,17.4, 2.0
2023/02/10 23:20:00,17.4, 2.2
2023/02/10 23:30:00,17.3, 1.8
2023/02/10 23:40:00,17.4, 2.2
2023/02/10 23:50:00,17.4, 1.9
